This is the latest recevied weather packets stored in our database for station/object W0AVQ. If no packets are shown the sender has not sent any weather packets the latest 10 day(s).
| Time | Temp. | Humidity | Pressure | Rain* | Wind** | Luminosity | Snow |
|---|---|---|---|---|---|---|---|
| 1777310133 | 25° C | 85% | 1010.2 hPa | 0 mm | - | 78 W/m² | - |
| 1777309831 | 25° C | 84% | 1010.1 hPa | 0 mm | - | 98 W/m² | - |
| 1777309528 | 25° C | 83% | 1010.4 hPa | 0 mm | - | 88 W/m² | - |
| 1777309225 | 25° C | 83% | 1010.4 hPa | 0 mm | - | 89 W/m² | - |
| 1777308924 | 25.56° C | 83% | 1010.1 hPa | 0 mm | - | 93 W/m² | - |
| 1777308619 | 25.56° C | 82% | 1010.5 hPa | 0 mm | - | 72 W/m² | - |
| 1777308315 | 25.56° C | 82% | 1010.2 hPa | 0 mm | - | 169 W/m² | - |
| 1777308010 | 25.56° C | 83% | 1010.2 hPa | 0 mm | - | 477 W/m² | - |
| 1777307709 | 25.56° C | 84% | 1010.3 hPa | 0 mm | - | 249 W/m² | - |
| 1777307404 | 25.56° C | 84% | 1010.4 hPa | 0 mm | - | 536 W/m² | - |
| 1777307102 | 25° C | 85% | 1010.7 hPa | 0 mm | - | 576 W/m² | - |
| 1777306799 | 25° C | 86% | 1010.9 hPa | 0 mm | - | 252 W/m² | - |
| 1777306496 | 25° C | 86% | 1011 hPa | 0 mm | - | 295 W/m² | - |
| 1777306192 | 24.44° C | 86% | 1010.9 hPa | 0 mm | - | 169 W/m² | - |
| 1777305887 | 24.44° C | 87% | 1011.1 hPa | 0 mm | - | 195 W/m² | - |
| 1777305583 | 24.44° C | 87% | 1011.2 hPa | 0 mm | - | 106 W/m² | - |
| 1777305280 | 24.44° C | 87% | 1011.1 hPa | 0 mm | - | 127 W/m² | - |
| 1777304978 | 24.44° C | 87% | 1010.9 hPa | 0 mm | - | 171 W/m² | - |
| 1777304675 | 24.44° C | 87% | 1011 hPa | 0 mm | - | 143 W/m² | - |
| 1777304372 | 24.44° C | 86% | 1010.9 hPa | 0 mm | - | 157 W/m² | - |
| 1777304070 | 24.44° C | 87% | 1010.9 hPa | 0 mm | - | 273 W/m² | - |
| 1777303766 | 23.89° C | 87% | 1011 hPa | 0 mm | - | 250 W/m² | - |
| 1777303463 | 23.89° C | 89% | 1011.2 hPa | 0 mm | - | 253 W/m² | - |
| 1777303161 | 23.33° C | 90% | 1011.2 hPa | 0 mm | - | 330 W/m² | - |
| 1777302860 | 22.78° C | 93% | 1011.4 hPa | 0 mm | - | 176 W/m² | - |
* Rain latest hour (hover to see other rain measurements)
** Current wind speed in m/s (hover to see current wind gust speed)